Location: Pradons
(44.4746°N, 4.3578°E)
Time: 16:04:57
(UTC+00:00)

USA 234 - Pass Details

Date: 09 April 2020
Orbit: 1102 x 1106 km, 123.0° (Epoch: 14 May)

Event Time Altitude Azimuth Distance (km) Brightness Sun altitude
Rises 19:52:25 0° 55° (NE) 3,925 5.9 -16.2°
Reaches altitude 10° 19:55:11 10° 64° (ENE) 2,964 5.2 -16.6°
Maximum altitude 20:01:04 35° 128° (SE) 1,706 3.7 -17.5°
Drops below altitude 10° 20:06:55 10° 192° (SSW) 2,953 5.3 -18.4°
Sets 20:09:38 0° 201° (SSW) 3,908 6.0 -18.8°
